Swainsboro, GA

2:06 AM EDT on May 28, 2017 (GMT -0400)
Emanuel County

Weather History for KSBO - March, 2013

Change the Weather History Date:

Wednesday, March 6, 2013

  Actual Average Record
Temperature  
Mean Temperature 42 °F -  
Max Temperature 50 °F 69 °F 71 °F (2017)
Min Temperature 35 °F 45 °F 33 °F (2014)
Degree Days  
Heating Degree Days 22    
Moisture  
Dew Point 29 °F    
Average Humidity 62    
Maximum Humidity 81    
Minimum Humidity 46    
Precipitation  
Precipitation 0.00 in - - ()
Sea Level Pressure  
Sea Level Pressure 30.01 in    
Wind  
Wind Speed 16 mph (NW)    
Max Wind Speed 28 mph    
Max Gust Speed 39 mph    
Visibility 10 miles    
Events      
Averages and records for this station are not official NWS values.
T = Trace of Precipitation, MM = Missing Value Source: NWS Daily Summary

Daily Weather History Graph

Daily Weather History Graph

Search for Another Location

Airport or City:

Trip Planner

Search our weather history database for the weather conditions in past years. The results will help you decide how hot, cold, wet, or windy it might be!

Date:

Astronomy

Mar. 06, 2013 Rise Set
Actual Time 6:50 AM EST 6:30 PM EST
Civil Twilight 6:26 AM EST 6:55 PM EST
Nautical Twilight 5:57 AM EST 7:24 PM EST
Astronomical Twilight 5:29 AM EST 7:52 PM EST
Moon 2:45 AM EST (3/6) 1:24 PM EST (3/6)
Length of Visible Light 12h 29m
Length of Day
11h 40m
Waning Crescent, 30% of the Moon is Illuminated
Mar 6
Waning Crescent
Mar 11
New
Mar 19
First Quarter
Mar 27
Full
Apr 3
Last Quarter

Hourly Weather History & Observations

Time (EST) Temp. Windchill Dew Point Humidity Pressure Visibility Wind Dir Wind Speed Gust Speed Precip Events Conditions
12:15 AM 46.4 °F 39.2 °F 35.6 °F 66% 29.88 in 10.0 mi WNW 18.4 mph 28.8 mph N/A   Clear
12:35 AM 44.6 °F 37.4 °F 35.6 °F 71% 29.89 in 10.0 mi WNW 16.1 mph 26.5 mph N/A   Clear
12:55 AM 42.8 °F 34.8 °F 33.8 °F 70% 29.90 in 10.0 mi WNW 17.3 mph 29.9 mph N/A   Scattered Clouds
1:15 AM 42.8 °F 34.5 °F 32.0 °F 66% 29.91 in 10.0 mi WNW 18.4 mph 29.9 mph N/A   Scattered Clouds
1:35 AM 41.0 °F 31.6 °F 32.0 °F 70% 29.92 in 10.0 mi WNW 20.7 mph 29.9 mph N/A   Clear
1:55 AM 41.0 °F 33.5 °F 32.0 °F 70% 29.92 in 10.0 mi WNW 13.8 mph 25.3 mph N/A   Clear
2:15 AM 41.0 °F 33.9 °F 30.2 °F 65% 29.92 in 10.0 mi WNW 12.7 mph 19.6 mph N/A   Clear
2:35 AM 39.2 °F 32.0 °F 30.2 °F 70% 29.92 in 10.0 mi WNW 11.5 mph 18.4 mph N/A   Clear
2:55 AM 39.2 °F 33.0 °F 30.2 °F 70% 29.92 in 10.0 mi WNW 9.2 mph 16.1 mph N/A   Clear
3:15 AM 39.2 °F 33.6 °F 30.2 °F 70% 29.91 in 10.0 mi West 8.1 mph - N/A   Clear
3:35 AM 39.2 °F 33.6 °F 30.2 °F 70% 29.91 in 10.0 mi WNW 8.1 mph - N/A   Clear
3:55 AM 37.4 °F 30.8 °F 30.2 °F 75% 29.91 in 10.0 mi West 9.2 mph - N/A   Clear
4:15 AM 37.4 °F 30.8 °F 30.2 °F 75% 29.90 in 10.0 mi West 9.2 mph - N/A   Clear
4:35 AM 37.4 °F 30.3 °F 32.0 °F 81% 29.90 in 10.0 mi West 10.4 mph 16.1 mph N/A   Clear
4:55 AM 37.4 °F 32.1 °F 32.0 °F 81% 29.91 in 10.0 mi West 6.9 mph - N/A   Clear
5:15 AM 37.4 °F 30.3 °F 32.0 °F 81% 29.91 in 10.0 mi West 10.4 mph 19.6 mph N/A   Clear
5:35 AM 37.4 °F 29.3 °F 32.0 °F 81% 29.91 in 10.0 mi WNW 12.7 mph 21.9 mph N/A   Mostly Cloudy
5:55 AM 39.2 °F 29.6 °F 32.0 °F 75% 29.92 in 10.0 mi WNW 19.6 mph 26.5 mph N/A   Overcast
6:15 AM 39.2 °F 28.5 °F 30.2 °F 70% 29.93 in 10.0 mi NW 24.2 mph 31.1 mph N/A   Overcast
6:35 AM 37.4 °F 28.5 °F 26.6 °F 65% 29.95 in 10.0 mi NW 15.0 mph 34.5 mph N/A   Scattered Clouds
6:55 AM 37.4 °F 28.5 °F 23.0 °F 56% 29.96 in 10.0 mi WNW 15.0 mph 28.8 mph N/A   Clear
7:15 AM 35.6 °F 26.2 °F 23.0 °F 60% 29.97 in 10.0 mi NW 15.0 mph 24.2 mph N/A   Clear
7:35 AM 37.4 °F 26.9 °F 23.0 °F 56% 29.98 in 10.0 mi NW 20.7 mph 26.5 mph N/A   Clear
7:55 AM 37.4 °F 28.5 °F 23.0 °F 56% 30.00 in 10.0 mi NW 15.0 mph 23.0 mph N/A   Clear
8:15 AM 37.4 °F 26.4 °F 23.0 °F 56% 30.01 in 10.0 mi NW 23.0 mph 33.4 mph N/A   Clear
8:35 AM 37.4 °F 26.4 °F 23.0 °F 56% 30.02 in 10.0 mi NW 23.0 mph 31.1 mph N/A   Clear
8:55 AM 39.2 °F 29.0 °F 23.0 °F 52% 30.03 in 10.0 mi NW 21.9 mph 28.8 mph N/A   Scattered Clouds
9:15 AM 39.2 °F 30.8 °F 23.0 °F 52% 30.03 in 10.0 mi NNW 15.0 mph 31.1 mph N/A   Scattered Clouds
9:35 AM 41.0 °F 30.9 °F 23.0 °F 49% 30.03 in 10.0 mi WNW 24.2 mph 29.9 mph N/A   Scattered Clouds
9:55 AM 41.0 °F 30.9 °F 23.0 °F 49% 30.04 in 10.0 mi NW 24.2 mph 32.2 mph N/A   Clear
10:15 AM 41.0 °F 31.6 °F 23.0 °F 49% 30.04 in 10.0 mi NW 20.7 mph 28.8 mph N/A   Clear
10:35 AM 42.8 °F 33.1 °F 24.8 °F 49% 30.04 in 10.0 mi NW 25.3 mph 38.0 mph N/A   Scattered Clouds
10:55 AM 42.8 °F 35.1 °F 24.8 °F 49% 30.03 in 10.0 mi WNW 16.1 mph 26.5 mph N/A   Scattered Clouds
11:15 AM 44.6 °F 36.4 °F 26.6 °F 49% 30.03 in 10.0 mi NW 20.7 mph 32.2 mph N/A   Scattered Clouds
11:55 AM 44.6 °F 38.1 °F 24.8 °F 46% 30.03 in 10.0 mi NW 13.8 mph 27.6 mph N/A   Mostly Cloudy
12:15 PM 44.6 °F 36.9 °F 26.6 °F 49% 30.04 in 10.0 mi NW 18.4 mph 31.1 mph N/A   Overcast
12:35 PM 46.4 °F 39.0 °F 26.6 °F 46% 30.03 in 10.0 mi WNW 19.6 mph 29.9 mph N/A   Mostly Cloudy
12:55 PM 46.4 °F 41.5 °F 26.6 °F 46% 30.02 in 10.0 mi WNW 10.4 mph 28.8 mph N/A   Scattered Clouds
1:15 PM 46.4 °F 37.5 °F 26.6 °F 46% 30.01 in 10.0 mi NW 27.6 mph 33.4 mph N/A   Scattered Clouds
1:55 PM 46.4 °F 39.5 °F 28.4 °F 50% 30.00 in 10.0 mi NW 17.3 mph 28.8 mph N/A   Scattered Clouds
2:15 PM 48.2 °F - 28.4 °F 46% 30.01 in 10.0 mi NW 19.6 mph 33.4 mph N/A   Scattered Clouds
2:35 PM 46.4 °F 39.0 °F 28.4 °F 50% 29.99 in 10.0 mi NW 19.6 mph 32.2 mph N/A   Scattered Clouds
2:55 PM 48.2 °F - 28.4 °F 46% 30.01 in 10.0 mi NW 23.0 mph 34.5 mph N/A   Scattered Clouds
3:15 PM 48.2 °F - 28.4 °F 46% 30.00 in 10.0 mi WNW 17.3 mph 26.5 mph N/A   Scattered Clouds
3:35 PM 50.0 °F - 30.2 °F 47% 30.01 in 10.0 mi NW 23.0 mph 32.2 mph N/A   Scattered Clouds
3:55 PM 48.2 °F - 28.4 °F 46% 30.01 in 10.0 mi NW 23.0 mph 31.1 mph N/A   Clear
4:15 PM 48.2 °F - 30.2 °F 50% 30.01 in 10.0 mi NW 25.3 mph 39.1 mph N/A   Clear
4:35 PM 48.2 °F - 28.4 °F 46% 30.02 in 10.0 mi NNW 20.7 mph 28.8 mph N/A   Clear
4:55 PM 48.2 °F - 30.2 °F 50% 30.03 in 10.0 mi NW 15.0 mph 23.0 mph N/A   Clear
5:15 PM 46.4 °F 40.1 °F 30.2 °F 53% 30.03 in 10.0 mi NNW 15.0 mph 23.0 mph N/A   Clear
5:35 PM 46.4 °F 39.8 °F 30.2 °F 53% 30.04 in 10.0 mi NW 16.1 mph 23.0 mph N/A   Clear
5:55 PM 44.6 °F 36.6 °F 30.2 °F 57% 30.06 in 10.0 mi NW 19.6 mph 29.9 mph N/A   Clear
6:15 PM 44.6 °F 38.1 °F 30.2 °F 57% 30.07 in 10.0 mi NW 13.8 mph 24.2 mph N/A   Clear
6:35 PM 42.8 °F 36.6 °F 30.2 °F 61% 30.08 in 10.0 mi NW 11.5 mph 21.9 mph N/A   Clear
6:55 PM 42.8 °F 34.8 °F 30.2 °F 61% 30.09 in 10.0 mi NNW 17.3 mph 21.9 mph N/A   Clear
7:15 PM 41.0 °F 33.9 °F 30.2 °F 65% 30.10 in 10.0 mi NW 12.7 mph - N/A   Clear
7:35 PM 41.0 °F 32.8 °F 30.2 °F 65% 30.11 in 10.0 mi NNW 16.1 mph 20.7 mph N/A   Clear
7:55 PM 41.0 °F 35.2 °F 30.2 °F 65% 30.11 in 10.0 mi NNW 9.2 mph - N/A   Clear
8:15 PM 41.0 °F 36.4 °F 30.2 °F 65% 30.11 in 10.0 mi NW 6.9 mph - N/A   Clear
8:35 PM 39.2 °F 34.2 °F 30.2 °F 70% 30.12 in 10.0 mi NNW 6.9 mph - N/A   Clear
8:55 PM 39.2 °F 33.6 °F 30.2 °F 70% 30.13 in 10.0 mi NW 8.1 mph - N/A   Clear
9:15 PM 37.4 °F 32.1 °F 30.2 °F 75% 30.13 in 10.0 mi NW 6.9 mph - N/A   Clear
9:35 PM 37.4 °F 32.8 °F 30.2 °F 75% 30.13 in 10.0 mi NNW 5.8 mph - N/A   Clear
9:55 PM 37.4 °F 32.8 °F 30.2 °F 75% 30.14 in 10.0 mi NW 5.8 mph - N/A   Clear
10:15 PM 35.6 °F 31.7 °F 30.2 °F 81% 30.14 in 10.0 mi NW 4.6 mph - N/A   Clear
10:35 PM 35.6 °F 29.2 °F 30.2 °F 81% 30.14 in 10.0 mi NW 8.1 mph - N/A   Clear
10:55 PM 35.6 °F 30.7 °F 30.2 °F 81% 30.14 in 10.0 mi NNW 5.8 mph - N/A   Clear
11:15 PM 35.6 °F 30.7 °F 30.2 °F 81% 30.14 in 10.0 mi NNW 5.8 mph - N/A   Clear
11:35 PM 35.6 °F 29.2 °F 30.2 °F 81% 30.16 in 10.0 mi NW 8.1 mph - N/A   Clear
11:55 PM 35.6 °F 31.7 °F 30.2 °F 81% 30.16 in 10.0 mi NNW 4.6 mph - N/A   Clear